NORTHEAST SUFFOLK  -  Air Quality Alert Air Quality Alert        NORTHERN NASSAU  -  Air Quality Alert Air Quality Alert        NORTHERN QUEENS  -  Air Quality Alert Air Quality Alert        NORTHWEST SUFFOLK  -  Air Quality Alert Air Quality Alert        SOUTHEAST SUFFOLK  -  Air Quality Alert Air Quality Alert        SOUTHERN NASSAU  -  Air Quality Alert Air Quality Alert        SOUTHERN QUEENS  -  Air Quality Alert Air Quality Alert        SOUTHWEST SUFFOLK  -  Air Quality Alert Air Quality Alert      

Active alerts

Northern Queens
  Details for Northern Queens Air Quality Alert
Southern Queens
  Details for Southern Queens Air Quality Alert
Northern Nassau
  Details for Northern Nassau Air Quality Alert
Southern Nassau
  Details for Southern Nassau Air Quality Alert
Northwest Suffolk
  Details for Northwest Suffolk Air Quality Alert
Southwest Suffolk
  Details for Southwest Suffolk Air Quality Alert
Northeast Suffolk
  Details for Northeast Suffolk Air Quality Alert
Southeast Suffolk
  Details for Southeast Suffolk Air Quality Alert


WXM80 ListenWXM80 Stop

You find our weather info also at:

UK Metoffice

WeatherCloud

Weather Underground

Northeastern Weather Network

AWEKAS

Citizen Weather Observer Program (CWOP)

HAMweather, WeatherForYou, PWS Weather


Weather Underground History page Text

Daily Summary for May 3, 2017 Units:  Metric    English   Both
« Previous Day
Next Day »
Daily Weekly Monthly Yearly Custom
  High: Low: Average:
Temperature: 20.3 °C 9.9 °C 16.2 °C
Dew Point: 8.8 °C 4.2 °C 5.9 °C
Humidity: 69 % 37 % 51 %
Wind Speed: 17.9 km/h 0 km/h 6.8 km/h
Wind Gust: 33.8 km/h - -
Wind:- - West
Pressure: 1021.6 hPa 1006.3 hPa -
Precipitation: 0 mm    
Historical Graphs
 
 
Tabular Data for May 3, 2017
Time Temperature Dew Point Pressure Wind Wind Speed Wind Gust Humidity Rainfall Rate (Hourly)
00:02 16.8 °C 5.4 °C 1006.3 hPa WSW 4.3 km/h 9.3 km/h 47 % 0 mm
00:07 16.8 °C 5.7 °C 1006.7 hPa West 5.1 km/h 14.8 km/h 48 % 0 mm
00:08 16.8 °C 5.7 °C 1006.7 hPa West 5.1 km/h 14.8 km/h 48 % 0 mm
00:10 16.8 °C 5.4 °C 1006.7 hPa West 7.6 km/h 13 km/h 47 % 0 mm
00:14 16.7 °C 5.3 °C 1006.3 hPa West 3.1 km/h 13 km/h 47 % 0 mm
00:15 16.7 °C 5.3 °C 1006.7 hPa NW 3.9 km/h 13 km/h 47 % 0 mm
00:20 16.7 °C 5.3 °C 1006.7 hPa WSW 4.3 km/h 13 km/h 47 % 0 mm
00:25 16.7 °C 5.3 °C 1006.7 hPa WSW 10.6 km/h 18.5 km/h 47 % 0 mm
00:30 16.7 °C 5.1 °C 1006.7 hPa WSW 10.9 km/h 25.9 km/h 46 % 0 mm
00:35 16.7 °C 5.1 °C 1006.7 hPa WNW 6.1 km/h 19.3 km/h 46 % 0 mm
00:40 16.7 °C 5.3 °C 1006.7 hPa WNW 3.1 km/h 9.3 km/h 47 % 0 mm
00:45 16.7 °C 5.3 °C 1006.7 hPa WSW 2.9 km/h 11.1 km/h 47 % 0 mm
00:50 16.7 °C 5.3 °C 1006.7 hPa West 6.4 km/h 13 km/h 47 % 0 mm
00:55 16.7 °C 5.3 °C 1006.7 hPa SSW 7.6 km/h 13 km/h 47 % 0 mm
01:00 16.6 °C 5.6 °C 1006.7 hPa WSW 4 km/h 9.3 km/h 48 % 0 mm
01:05 16.6 °C 5.5 °C 1006.7 hPa West 5.8 km/h 14.5 km/h 48 % 0 mm
01:10 16.6 °C 5.5 °C 1006.7 hPa West 6.8 km/h 14.8 km/h 48 % 0 mm
01:15 16.5 °C 5.7 °C 1006.7 hPa WNW 4.2 km/h 9.7 km/h 49 % 0 mm
01:20 16.4 °C 5.7 °C 1006.7 hPa West 9.2 km/h 18.5 km/h 49 % 0 mm
01:25 16.4 °C 5.7 °C 1006.7 hPa SW 5.8 km/h 11.3 km/h 49 % 0 mm
01:30 16.3 °C 5.6 °C 1006.7 hPa West 10.5 km/h 18.5 km/h 49 % 0 mm
01:35 16.3 °C 5.6 °C 1006.7 hPa West 6.8 km/h 16.7 km/h 49 % 0 mm
01:37 16.3 °C 5.6 °C 1006.7 hPa NNW 4.3 km/h 20.4 km/h 49 % 0 mm
01:40 16.3 °C 5.6 °C 1006.7 hPa WNW 1.3 km/h 9.7 km/h 49 % 0 mm
01:45 16.2 °C 5.5 °C 1006.7 hPa West 9.3 km/h 16.7 km/h 49 % 0 mm
01:50 16.2 °C 5.5 °C 1006.7 hPa WSW 8.9 km/h 14.8 km/h 49 % 0 mm
01:55 16.2 °C 5.4 °C 1006.7 hPa WNW 8 km/h 11.3 km/h 49 % 0 mm
02:01 16.2 °C 5.7 °C 1006.7 hPa WNW 6.9 km/h 12.9 km/h 50 % 0 mm
02:06 16.1 °C 5.9 °C 1006.7 hPa West 4.8 km/h 12.9 km/h 51 % 0 mm
02:11 16.1 °C 5.9 °C 1006.7 hPa WSW 3.2 km/h 11.3 km/h 51 % 0 mm
02:16 16.1 °C 5.9 °C 1006.7 hPa West 3.2 km/h 11.3 km/h 51 % 0 mm
02:21 16 °C 6.2 °C 1006.7 hPa WSW 4.5 km/h 13 km/h 52 % 0 mm
02:26 15.9 °C 6.4 °C 1006.7 hPa West 9.5 km/h 9.5 km/h 53 % 0 mm
02:31 15.8 °C 6.6 °C 1006.7 hPa West 1.6 km/h 11.3 km/h 54 % 0 mm
02:36 15.8 °C 6.2 °C 1006.7 hPa West 8 km/h 19.3 km/h 53 % 0 mm
02:41 15.7 °C 6.4 °C 1006.7 hPa WSW 8 km/h 20.9 km/h 54 % 0 mm
02:46 15.7 °C 6.7 °C 1006.7 hPa WSW 6.9 km/h 18.5 km/h 55 % 0 mm
02:51 15.6 °C 6.3 °C 1006.3 hPa West 6.3 km/h 14.8 km/h 54 % 0 mm
02:55 15.6 °C 6 °C 1006.7 hPa WSW 4.8 km/h 8 km/h 53 % 0 mm
02:59 15.6 °C 6 °C 1006.7 hPa WSW 7.9 km/h 13 km/h 53 % 0 mm
03:00 15.6 °C 6 °C 1006.7 hPa WSW 6.4 km/h 13 km/h 53 % 0 mm
03:05 15.6 °C 6.3 °C 1006.7 hPa SW 2.9 km/h 8 km/h 54 % 0 mm
03:10 15.5 °C 6.2 °C 1006.7 hPa WSW 5.6 km/h 11.1 km/h 54 % 0 mm
03:15 15.4 °C 6.2 °C 1006.7 hPa WNW 6.3 km/h 9.3 km/h 54 % 0 mm
03:20 15.4 °C 6.4 °C 1006.7 hPa WSW 6 km/h 9.3 km/h 55 % 0 mm
03:25 15.4 °C 6.4 °C 1006.7 hPa WSW 2.1 km/h 5.6 km/h 55 % 0 mm
03:30 15.3 °C 6.6 °C 1006.7 hPa WSW 6 km/h 12.9 km/h 56 % 0 mm
03:35 15.3 °C 6.6 °C 1007 hPa SW 8.5 km/h 18.5 km/h 56 % 0 mm
03:40 15.2 °C 6.5 °C 1007 hPa West 5.3 km/h 16.7 km/h 56 % 0 mm
03:45 15.2 °C 6.5 °C 1007 hPa SW 8 km/h 11.1 km/h 56 % 0 mm
03:50 15.2 °C 6.8 °C 1007 hPa WSW 6.6 km/h 6.6 km/h 57 % 0 mm
03:55 15.2 °C 6.4 °C 1007.3 hPa West 5.8 km/h 16.7 km/h 56 % 0 mm
04:00 15.2 °C 6.2 °C 1007.3 hPa West 8.2 km/h 14.8 km/h 55 % 0 mm
04:05 15.2 °C 6.2 °C 1007 hPa SW 4.5 km/h 7.4 km/h 55 % 0 mm
04:11 15.2 °C 6.2 °C 1007.3 hPa West 6.1 km/h 11.1 km/h 55 % 0 mm
04:16 15.2 °C 6.2 °C 1007.3 hPa SW 3.5 km/h 9.7 km/h 55 % 0 mm
04:21 15.3 °C 6.3 °C 1007.3 hPa West 1.6 km/h 14.5 km/h 55 % 0 mm
04:26 15.3 °C 6.3 °C 1007.3 hPa West 3.2 km/h 19.3 km/h 55 % 0 mm
04:31 15.3 °C 6.3 °C 1007.3 hPa West 8 km/h 19.3 km/h 55 % 0 mm
04:36 15.3 °C 6.1 °C 1007.3 hPa West 4.8 km/h 19.3 km/h 54 % 0 mm
04:41 15.3 °C 6.1 °C 1007.3 hPa West 4.8 km/h 19.3 km/h 54 % 0 mm
04:46 15.4 °C 6.1 °C 1007.3 hPa West 9.7 km/h 19.3 km/h 54 % 0 mm
04:51 15.4 °C 6.1 °C 1007.3 hPa West 9.7 km/h 20.9 km/h 54 % 0 mm
04:56 15.4 °C 6.1 °C 1007.3 hPa SSW 9.5 km/h 14.8 km/h 54 % 0 mm
05:01 15.4 °C 5.8 °C 1007.3 hPa WNW 10.1 km/h 13 km/h 53 % 0 mm
05:06 15.4 °C 5.6 °C 1007.7 hPa West 11.3 km/h 32.2 km/h 52 % 0 mm
05:11 15.4 °C 5.6 °C 1007.7 hPa WSW 9.3 km/h 14.5 km/h 52 % 0 mm
05:16 15.4 °C 5.6 °C 1007.7 hPa WSW 10.8 km/h 13 km/h 52 % 0 mm
05:21 15.3 °C 5.8 °C 1007.7 hPa West 8 km/h 32.2 km/h 53 % 0 mm
05:26 15.3 °C 5.8 °C 1007.7 hPa West 8 km/h 19.3 km/h 53 % 0 mm
05:31 15.3 °C 5.7 °C 1008 hPa West 4.8 km/h 12.9 km/h 53 % 0 mm
05:36 15.2 °C 5.9 °C 1008 hPa West 3.2 km/h 12.9 km/h 54 % 0 mm
05:41 15.2 °C 5.9 °C 1008 hPa West 3.2 km/h 12.9 km/h 54 % 0 mm
05:46 15.1 °C 5.8 °C 1008 hPa WSW 9.7 km/h 19.3 km/h 54 % 0 mm
05:51 14.9 °C 5.7 °C 1008 hPa West 12.9 km/h 22.5 km/h 54 % 0 mm
05:56 14.9 °C 5.7 °C 1008 hPa West 9.7 km/h 22.5 km/h 54 % 0 mm
06:01 14.8 °C 5.3 °C 1008 hPa WNW 9 km/h 20.4 km/h 53 % 0 mm
06:06 14.8 °C 5.6 °C 1008 hPa West 10.6 km/h 16.7 km/h 54 % 0 mm
06:11 14.8 °C 5.8 °C 1008 hPa WSW 4 km/h 5.6 km/h 55 % 0 mm
06:15 14.8 °C 5.8 °C 1008.4 hPa West 3.1 km/h 13 km/h 55 % 0 mm
06:20 14.7 °C 5.8 °C 1008.4 hPa West 5.6 km/h 18.5 km/h 55 % 0 mm
06:25 14.7 °C 5.8 °C 1008.4 hPa West 9.5 km/h 18.5 km/h 55 % 0 mm
06:30 14.7 °C 5.8 °C 1008.4 hPa West 5 km/h 13 km/h 55 % 0 mm
06:36 14.8 °C 6.1 °C 1008.4 hPa West 8 km/h 19.3 km/h 56 % 0 mm
06:41 14.8 °C 6.1 °C 1008.7 hPa West 3.2 km/h 9.7 km/h 56 % 0 mm
06:46 14.8 °C 6.4 °C 1008.7 hPa West 1.6 km/h 9.7 km/h 57 % 0 mm
06:51 14.9 °C 6.5 °C 1008.7 hPa West 3.2 km/h 11.3 km/h 57 % 0 mm
06:56 15 °C 6.6 °C 1009 hPa WSW 4.3 km/h 11.3 km/h 57 % 0 mm
07:01 15.1 °C 6.9 °C 1008.7 hPa WSW 5.3 km/h 11.3 km/h 58 % 0 mm
07:06 15.2 °C 7.2 °C 1009 hPa WSW 1.6 km/h 11.3 km/h 59 % 0 mm
07:11 15.3 °C 7.1 °C 1009 hPa West 8 km/h 14.5 km/h 58 % 0 mm
07:16 15.4 °C 6.9 °C 1009 hPa WNW 4.8 km/h 14.5 km/h 57 % 0 mm
07:21 15.6 °C 6.8 °C 1009 hPa West 3.2 km/h 12.9 km/h 56 % 0 mm
07:26 15.7 °C 6.9 °C 1009 hPa WSW 9.3 km/h 16.1 km/h 56 % 0 mm
07:31 15.8 °C 6.8 °C 1009 hPa WNW 8 km/h 19.3 km/h 55 % 0 mm
07:36 15.8 °C 6.8 °C 1008.7 hPa WNW 9.7 km/h 22.5 km/h 55 % 0 mm
07:41 15.8 °C 6.8 °C 1008.7 hPa WNW 8 km/h 16.1 km/h 55 % 0 mm
07:46 15.8 °C 6.8 °C 1008.7 hPa NW 12.9 km/h 22.5 km/h 55 % 0 mm
07:51 15.8 °C 6.8 °C 1008.7 hPa WNW 12.9 km/h 27.4 km/h 55 % 0 mm
07:56 15.8 °C 6.8 °C 1009 hPa NW 7.7 km/h 16.7 km/h 55 % 0 mm
08:00 15.8 °C 7.1 °C 1009 hPa NW 6.9 km/h 7.4 km/h 56 % 0 mm
08:06 15.9 °C 6.8 °C 1009 hPa West 8 km/h 19.3 km/h 55 % 0 mm
08:11 15.9 °C 7.2 °C 1009 hPa West 8 km/h 19.3 km/h 56 % 0 mm
08:16 16 °C 7.2 °C 1009.4 hPa WSW 3.2 km/h 14.5 km/h 56 % 0 mm
08:21 16.1 °C 7 °C 1009.4 hPa WSW 11.3 km/h 20.9 km/h 55 % 0 mm
08:26 16.2 °C 7.4 °C 1009 hPa West 1.6 km/h 14.5 km/h 56 % 0 mm
08:31 16.2 °C 7.2 °C 1009.4 hPa WNW 4.8 km/h 14.5 km/h 55 % 0 mm
08:36 16.3 °C 6.9 °C 1009.4 hPa WNW 7.2 km/h 22.2 km/h 54 % 0 mm
08:40 16.3 °C 7 °C 1009.4 hPa West 7.6 km/h 14.8 km/h 54 % 0 mm
08:46 16.5 °C 7.7 °C 1009.4 hPa West 1.6 km/h 14.5 km/h 56 % 0 mm
08:51 16.7 °C 7.6 °C 1009.4 hPa WNW 4.8 km/h 5.6 km/h 55 % 0 mm
08:56 16.8 °C 7.7 °C 1009.4 hPa West 8 km/h 16.1 km/h 55 % 0 mm
09:01 17 °C 7.9 °C 1009.7 hPa West 6.1 km/h 13 km/h 55 % 0 mm
09:06 17.1 °C 7.4 °C 1009.7 hPa NW 8 km/h 16.1 km/h 53 % 0 mm
09:07 17.2 °C 7.2 °C 1009.7 hPa WSW 11.6 km/h 18.5 km/h 52 % 0 mm
09:12 17.2 °C 7.3 °C 1009.7 hPa WNW 13.8 km/h 24.1 km/h 52 % 0 mm
09:17 17.3 °C 6.8 °C 1009.7 hPa WSW 12.7 km/h 18.5 km/h 50 % 0 mm
09:22 17.4 °C 6.6 °C 1009.7 hPa West 10.5 km/h 18.5 km/h 49 % 0 mm
09:27 17.5 °C 6.3 °C 1010 hPa WSW 6.9 km/h 18.5 km/h 48 % 0 mm
09:32 17.6 °C 6.4 °C 1010 hPa WNW 6.6 km/h 18.5 km/h 48 % 0 mm
09:33 17.6 °C 6.4 °C 1010 hPa West 10.5 km/h 18.5 km/h 48 % 0 mm
09:38 17.7 °C 6.9 °C 1010 hPa NNW 4.8 km/h 11.1 km/h 49 % 0 mm
09:43 17.8 °C 6.9 °C 1010 hPa WNW 12.9 km/h 16.7 km/h 49 % 0 mm
09:48 18.1 °C 7.4 °C 1010 hPa North 6.4 km/h 13 km/h 50 % 0 mm
09:53 18.2 °C 6.7 °C 1010 hPa West 11.6 km/h 16.7 km/h 47 % 0 mm
09:58 18.3 °C 7.1 °C 1010 hPa WNW 8.2 km/h 14.5 km/h 48 % 0 mm
10:03 18.6 °C 8.8 °C 1010.4 hPa North 6.8 km/h 9.7 km/h 53 % 0 mm
10:08 18.7 °C 8.1 °C 1010 hPa WNW 4.8 km/h 11.3 km/h 50 % 0 mm
10:13 18.9 °C 8.3 °C 1010 hPa NNE 5.3 km/h 12.9 km/h 50 % 0 mm
10:18 19.1 °C 8.1 °C 1010 hPa WSW 1.6 km/h 5.6 km/h 49 % 0 mm
10:23 19.2 °C 7.6 °C 1010 hPa NW 7.2 km/h 14.8 km/h 47 % 0 mm
10:28 19.1 °C 6.8 °C 1010.4 hPa WNW 4.3 km/h 7.4 km/h 45 % 0 mm
10:33 18.9 °C 7 °C 1010.4 hPa WNW 6 km/h 14.8 km/h 46 % 0 mm
10:38 18.6 °C 6.1 °C 1010.4 hPa WNW 12.2 km/h 24.1 km/h 44 % 0 mm
10:43 18.5 °C 6 °C 1010.4 hPa West 9.8 km/h 22.2 km/h 44 % 0 mm
10:48 18.6 °C 6.1 °C 1010.4 hPa WNW 10.3 km/h 20.4 km/h 44 % 0 mm
10:53 18.7 °C 7.4 °C 1010.4 hPa NW 5.8 km/h 11.3 km/h 48 % 0 mm
10:58 18.9 °C 7 °C 1010.4 hPa WNW 6.1 km/h 11.1 km/h 46 % 0 mm
11:03 18.9 °C 6.4 °C 1010.4 hPa West 6.8 km/h 11.3 km/h 44 % 0 mm
11:08 19 °C 6.4 °C 1010.4 hPa NW 11.7 km/h 18.5 km/h 44 % 0 mm
11:13 19.1 °C 5.8 °C 1010.4 hPa WNW 12.6 km/h 24.1 km/h 42 % 0 mm
11:18 19 °C 5.4 °C 1010.4 hPa WNW 10.8 km/h 18.5 km/h 41 % 0 mm
11:23 19.1 °C 5.8 °C 1010.4 hPa NW 12.9 km/h 24.1 km/h 42 % 0 mm
11:28 19.1 °C 5.6 °C 1010.4 hPa West 9.3 km/h 14.5 km/h 41 % 0 mm
11:33 19.1 °C 5.6 °C 1010.4 hPa West 10.8 km/h 16.1 km/h 41 % 0 mm
11:38 19.2 °C 5.6 °C 1010.4 hPa WNW 8.4 km/h 16.7 km/h 41 % 0 mm
11:43 19.1 °C 5.9 °C 1010.4 hPa WSW 6.4 km/h 13 km/h 42 % 0 mm
11:48 18.9 °C 5.4 °C 1010.4 hPa NW 10.6 km/h 19.3 km/h 41 % 0 mm
11:53 18.7 °C 5.2 °C 1010.4 hPa WNW 7.4 km/h 16.7 km/h 41 % 0 mm
11:58 18.4 °C 4.9 °C 1010.4 hPa WNW 8.2 km/h 18.5 km/h 41 % 0 mm
12:03 18.3 °C 5.2 °C 1010.4 hPa NW 9.8 km/h 16.7 km/h 42 % 0 mm
12:09 18.7 °C 5.9 °C 1010.4 hPa WNW 9 km/h 18.5 km/h 43 % 0 mm
12:14 19 °C 5.4 °C 1010.4 hPa SW 6.4 km/h 13 km/h 41 % 0 mm
12:19 19.2 °C 5.9 °C 1010.4 hPa SW 10.6 km/h 20.9 km/h 42 % 0 mm
12:24 19.4 °C 6.1 °C 1010.4 hPa WSW 12.1 km/h 22.2 km/h 42 % 0 mm
12:29 19.7 °C 6.4 °C 1010.4 hPa WNW 9 km/h 17.7 km/h 42 % 0 mm
12:34 19.6 °C 4.9 °C 1010.7 hPa WSW 7.9 km/h 20.4 km/h 38 % 0 mm
12:39 19.4 °C 5.1 °C 1010.7 hPa West 9.5 km/h 11.3 km/h 39 % 0 mm
12:44 19.2 °C 4.9 °C 1010.7 hPa West 9 km/h 18.5 km/h 39 % 0 mm
12:49 19.1 °C 5.1 °C 1011.1 hPa NW 8.5 km/h 18.5 km/h 40 % 0 mm
12:54 19 °C 6.1 °C 1011.1 hPa NW 9.8 km/h 16.7 km/h 43 % 0 mm
12:59 19 °C 6.8 °C 1011.4 hPa West 10.3 km/h 18.5 km/h 45 % 0 mm
13:04 18.9 °C 6.1 °C 1011.1 hPa West 9.3 km/h 19.3 km/h 43 % 0 mm
13:09 18.8 °C 5.6 °C 1011.4 hPa WSW 12.9 km/h 19.3 km/h 42 % 0 mm
13:14 18.6 °C 5.1 °C 1011.4 hPa NW 9 km/h 27.8 km/h 41 % 0 mm
13:20 18.5 °C 5.7 °C 1011.4 hPa WSW 10.6 km/h 16.7 km/h 43 % 0 mm
13:25 18.4 °C 4.9 °C 1011.4 hPa NW 9.3 km/h 22.2 km/h 41 % 0 mm
13:30 18.3 °C 5.2 °C 1011.4 hPa WNW 11.1 km/h 18.5 km/h 42 % 0 mm
13:35 18.3 °C 6.4 °C 1011.4 hPa WSW 4.5 km/h 18.5 km/h 46 % 0 mm
13:40 18.4 °C 5.9 °C 1011.1 hPa West 7.6 km/h 16.7 km/h 44 % 0 mm
13:45 18.7 °C 7.4 °C 1011.4 hPa WSW 5 km/h 16.7 km/h 48 % 0 mm
13:50 19.1 °C 5.5 °C 1011.4 hPa WSW 10.9 km/h 22.2 km/h 41 % 0 mm
13:55 19.1 °C 5.9 °C 1011.7 hPa WNW 7.2 km/h 22.2 km/h 42 % 0 mm
14:00 19.3 °C 6.1 °C 1011.7 hPa WNW 4.5 km/h 13 km/h 42 % 0 mm
14:05 19.7 °C 6.4 °C 1011.7 hPa SSW 9.7 km/h 16.7 km/h 42 % 0 mm
14:10 19.8 °C 6.2 °C 1011.7 hPa WNW 8.4 km/h 18.5 km/h 41 % 0 mm
14:15 19.8 °C 5.8 °C 1011.7 hPa NW 9.3 km/h 14.8 km/h 40 % 0 mm
14:20 19.9 °C 5.9 °C 1011.7 hPa WNW 11.3 km/h 18.5 km/h 40 % 0 mm
14:25 19.8 °C 5.4 °C 1011.7 hPa West 9.7 km/h 22.5 km/h 39 % 0 mm
14:30 19.9 °C 6.3 °C 1011.7 hPa WNW 11.4 km/h 18.5 km/h 41 % 0 mm
14:35 20.1 °C 5.7 °C 1011.7 hPa NW 8.2 km/h 14.8 km/h 39 % 0 mm
14:40 20.1 °C 6.1 °C 1011.7 hPa NW 11.6 km/h 20.4 km/h 40 % 0 mm
14:45 20.1 °C 5.7 °C 1011.7 hPa WSW 11.6 km/h 20.4 km/h 39 % 0 mm
14:50 20.1 °C 6.1 °C 1012.1 hPa SW 11.6 km/h 18.5 km/h 40 % 0 mm
14:55 20.1 °C 5.7 °C 1012.1 hPa SW 14.6 km/h 33.8 km/h 39 % 0 mm
15:00 19.9 °C 5.9 °C 1011.7 hPa NW 14.8 km/h 24.1 km/h 40 % 0 mm
15:05 19.9 °C 6.3 °C 1011.7 hPa WSW 6.8 km/h 16.7 km/h 41 % 0 mm
15:10 20 °C 6.7 °C 1011.7 hPa WSW 4.7 km/h 14.8 km/h 42 % 0 mm
15:15 20.2 °C 6.2 °C 1012.1 hPa West 8.2 km/h 16.7 km/h 40 % 0 mm
15:20 20.3 °C 6.6 °C 1012.1 hPa WNW 8.5 km/h 16.1 km/h 41 % 0 mm
15:25 20.3 °C 5.1 °C 1012.1 hPa WNW 9.5 km/h 16.7 km/h 37 % 0 mm
15:30 20.1 °C 5.3 °C 1012.1 hPa WSW 8.5 km/h 16.7 km/h 38 % 0 mm
15:36 19.9 °C 5.9 °C 1012.1 hPa WNW 9.7 km/h 19.3 km/h 40 % 0 mm
15:41 20.1 °C 6.1 °C 1012.1 hPa NW 7.9 km/h 18.5 km/h 40 % 0 mm
15:46 20.1 °C 5.7 °C 1012.1 hPa West 11.3 km/h 25.9 km/h 39 % 0 mm
15:51 20.1 °C 6.1 °C 1012.1 hPa NW 10.3 km/h 20.9 km/h 40 % 0 mm
15:52 20.1 °C 5.7 °C 1012.1 hPa WNW 14.2 km/h 20.4 km/h 39 % 0 mm
15:53 20.1 °C 5.7 °C 1012.4 hPa WNW 12.9 km/h 22.5 km/h 39 % 0 mm
15:58 19.9 °C 5.5 °C 1012.1 hPa North 14.2 km/h 17.7 km/h 39 % 0 mm
16:03 19.8 °C 5.4 °C 1012.1 hPa WNW 12.6 km/h 19.3 km/h 39 % 0 mm
16:08 19.8 °C 5.4 °C 1012.4 hPa NW 11.9 km/h 19.3 km/h 39 % 0 mm
16:13 19.8 °C 6.5 °C 1012.4 hPa NW 7.9 km/h 18.5 km/h 42 % 0 mm
16:18 19.8 °C 5.4 °C 1012.4 hPa West 16.4 km/h 25.9 km/h 39 % 0 mm
16:23 19.7 °C 6.4 °C 1012.4 hPa NW 4.7 km/h 22.2 km/h 42 % 0 mm
16:28 19.5 °C 5.9 °C 1012.4 hPa North 7.7 km/h 13 km/h 41 % 0 mm
16:33 19.3 °C 5.7 °C 1012.4 hPa SSE 2.7 km/h 17.7 km/h 41 % 0 mm
16:38 19.3 °C 5.3 °C 1012.4 hPa WSW 11.9 km/h 18.5 km/h 40 % 0 mm
16:43 19.2 °C 5.2 °C 1012.8 hPa WNW 17.9 km/h 27.8 km/h 40 % 0 mm
16:48 18.9 °C 5.4 °C 1012.8 hPa West 6.9 km/h 11.1 km/h 41 % 0 mm
16:53 18.8 °C 5.9 °C 1012.8 hPa NW 2.4 km/h 9.3 km/h 43 % 0 mm
16:58 18.7 °C 5.2 °C 1012.8 hPa WNW 10.8 km/h 18.5 km/h 41 % 0 mm
17:03 18.6 °C 5.4 °C 1013.1 hPa NW 13.5 km/h 20.4 km/h 42 % 0 mm
17:08 18.6 °C 6.7 °C 1013.1 hPa NNW 5.3 km/h 14.8 km/h 46 % 0 mm
17:13 18.4 °C 6.3 °C 1013.1 hPa WNW 7.7 km/h 22.2 km/h 45 % 0 mm
17:18 18.3 °C 6.2 °C 1013.1 hPa WNW 8.5 km/h 24.1 km/h 45 % 0 mm
17:23 18.2 °C 6.1 °C 1013.1 hPa NNW 5.5 km/h 9.3 km/h 45 % 0 mm
17:28 18 °C 6.2 °C 1013.8 hPa West 6.8 km/h 22.2 km/h 46 % 0 mm
17:33 17.8 °C 6.1 °C 1013.8 hPa North 3.5 km/h 9.3 km/h 46 % 0 mm
17:38 17.7 °C 5.9 °C 1013.8 hPa WNW 10.6 km/h 14.8 km/h 46 % 0 mm
17:43 17.4 °C 6.6 °C 1013.8 hPa North 3.1 km/h 9.3 km/h 49 % 0 mm
17:48 17.2 °C 6.1 °C 1013.8 hPa NNW 5.1 km/h 18.5 km/h 48 % 0 mm
17:53 17.1 °C 6.3 °C 1014.1 hPa North 1.8 km/h 8 km/h 49 % 0 mm
17:58 16.8 °C 6 °C 1014.1 hPa NW 3.7 km/h 18.5 km/h 49 % 0 mm
18:04 16.7 °C 5.9 °C 1014.1 hPa WNW 10 km/h 13 km/h 49 % 0 mm
18:09 16.5 °C 5.7 °C 1014.1 hPa West 2.6 km/h 20.4 km/h 49 % 0 mm
18:10 16.4 °C 5.4 °C 1014.1 hPa NNW 6 km/h 13 km/h 48 % 0 mm
18:12 16.4 °C 5.3 °C 1014.1 hPa NNE 5.3 km/h 13 km/h 48 % 0 mm
18:17 16.2 °C 6 °C 1014.1 hPa North 2.6 km/h 5.6 km/h 51 % 0 mm
18:22 15.9 °C 5.2 °C 1014.1 hPa NW 6 km/h 14.8 km/h 49 % 0 mm
18:27 15.9 °C 5.4 °C 1014.4 hPa WNW 6.3 km/h 11.1 km/h 50 % 0 mm
18:32 15.8 °C 5.7 °C 1014.4 hPa North 4.8 km/h 9.7 km/h 51 % 0 mm
18:37 15.7 °C 6.1 °C 1014.4 hPa NNW 3.2 km/h 5.6 km/h 53 % 0 mm
18:42 15.6 °C 6.3 °C 1014.4 hPa North 1.1 km/h 6.4 km/h 54 % 0 mm
18:47 15.6 °C 6 °C 1014.8 hPa NW 8.5 km/h 14.8 km/h 53 % 0 mm
18:52 15.4 °C 6.2 °C 1014.8 hPa NW 6.4 km/h 16.7 km/h 54 % 0 mm
18:57 15.4 °C 6.9 °C 1014.8 hPa NNW 2.1 km/h 4.8 km/h 57 % 0 mm
19:02 15.3 °C 6.6 °C 1015.1 hPa WNW 5.5 km/h 5.6 km/h 56 % 0 mm
19:07 15.2 °C 6.7 °C 1014.8 hPa NW 0.6 km/h 5.6 km/h 57 % 0 mm
19:13 15 °C 5.8 °C 1015.1 hPa North 0.2 km/h 5.6 km/h 54 % 0 mm
19:18 14.7 °C 5.5 °C 1015.1 hPa North 4.2 km/h 14.8 km/h 54 % 0 mm
19:23 14.6 °C 5.3 °C 1015.1 hPa North 7.4 km/h 11.1 km/h 54 % 0 mm
19:28 14.3 °C 5.4 °C 1015.1 hPa NNE 6.3 km/h 13 km/h 55 % 0 mm
19:33 14.1 °C 4.7 °C 1015.1 hPa NNE 8.4 km/h 14.8 km/h 53 % 0 mm
19:38 13.9 °C 4.2 °C 1015.8 hPa North 7.1 km/h 18.5 km/h 52 % 0 mm
19:43 13.8 °C 4.6 °C 1015.8 hPa NNE 9.8 km/h 16.7 km/h 54 % 0 mm
19:48 13.6 °C 4.2 °C 1015.8 hPa NNE 10.8 km/h 18.5 km/h 53 % 0 mm
19:53 13.6 °C 4.2 °C 1015.5 hPa NNW 7.7 km/h 9.7 km/h 53 % 0 mm
19:58 13.4 °C 4.3 °C 1015.8 hPa NNE 14 km/h 18.5 km/h 54 % 0 mm
20:03 13.4 °C 4.3 °C 1015.8 hPa North 9 km/h 11.1 km/h 54 % 0 mm
20:08 13.3 °C 4.7 °C 1015.8 hPa NNE 8 km/h 16.7 km/h 56 % 0 mm
20:13 13.3 °C 4.7 °C 1016.1 hPa North 7.2 km/h 16.7 km/h 56 % 0 mm
20:18 13.2 °C 5.3 °C 1016.1 hPa North 11.4 km/h 16.7 km/h 59 % 0 mm
20:23 13 °C 5.4 °C 1016.5 hPa North 11.1 km/h 18.5 km/h 60 % 0 mm
20:28 12.8 °C 5.7 °C 1016.8 hPa NNE 12.4 km/h 18.5 km/h 62 % 0 mm
20:33 12.7 °C 5.6 °C 1017.2 hPa NNE 11.7 km/h 18.5 km/h 62 % 0 mm
20:38 12.6 °C 5.4 °C 1017.5 hPa NNE 9.7 km/h 14.5 km/h 62 % 0 mm
20:43 12.5 °C 5.4 °C 1017.5 hPa North 12.6 km/h 19.3 km/h 62 % 0 mm
20:48 12.3 °C 5 °C 1017.8 hPa NNE 6.8 km/h 12.9 km/h 61 % 0 mm
20:54 12.3 °C 4.9 °C 1018.5 hPa North 8.5 km/h 16.7 km/h 61 % 0 mm
20:59 12.2 °C 5.1 °C 1018.5 hPa North 8.5 km/h 13 km/h 62 % 0 mm
21:04 12.1 °C 4.8 °C 1018.5 hPa North 7.4 km/h 14.8 km/h 61 % 0 mm
21:09 12.1 °C 4.8 °C 1018.8 hPa NNW 3.2 km/h 13 km/h 61 % 0 mm
21:14 12 °C 4.7 °C 1018.8 hPa NW 1.1 km/h 7.4 km/h 61 % 0 mm
21:19 11.9 °C 4.7 °C 1019.2 hPa NW 2.6 km/h 5.6 km/h 61 % 0 mm
21:24 11.8 °C 4.6 °C 1019.2 hPa NW 2.7 km/h 5.6 km/h 61 % 0 mm
21:29 11.8 °C 4.6 °C 1019.5 hPa NNE 1.6 km/h 5.6 km/h 61 % 0 mm
21:34 11.8 °C 4.3 °C 1019.5 hPa North 2.9 km/h 9.7 km/h 60 % 0 mm
21:39 11.7 °C 4.6 °C 1019.9 hPa North 0.6 km/h 5.6 km/h 62 % 0 mm
21:44 11.7 °C 4.6 °C 1019.9 hPa NNE 0.3 km/h 1.9 km/h 62 % 0 mm
21:49 11.6 °C 4.6 °C 1019.9 hPa NW 0.2 km/h 1.9 km/h 62 % 0 mm
21:54 11.6 °C 4.5 °C 1020.2 hPa NW 1.3 km/h 5.6 km/h 62 % 0 mm
21:59 11.6 °C 4.5 °C 1020.2 hPa NW 0.2 km/h   62 % 0 mm
22:04 11.5 °C 4.7 °C 1020.2 hPa NW 0.5 km/h 1.9 km/h 63 % 0 mm
22:09 11.4 °C 4.7 °C 1020.5 hPa North 1.9 km/h 8 km/h 63 % 0 mm
22:14 11.4 °C 4.6 °C 1020.5 hPa NW 1.8 km/h 7.4 km/h 63 % 0 mm
22:19 11.3 °C 4.7 °C 1020.5 hPa NNW 0.3 km/h 5.6 km/h 64 % 0 mm
22:24 11.2 °C 4.9 °C 1020.9 hPa NNW 0.2 km/h 1.9 km/h 65 % 0 mm
22:29 11.2 °C 4.9 °C 1020.9 hPa Calm     65 % 0 mm
22:34 11.2 °C 5.1 °C 1020.9 hPa Calm     66 % 0 mm
22:39 11.1 °C 5.2 °C 1020.9 hPa Calm     67 % 0 mm
22:44 11.1 °C 5.2 °C 1020.9 hPa NNW 0.2 km/h   67 % 0 mm
22:47 11 °C 5.1 °C 1020.9 hPa Calm     67 % 0 mm
22:52 10.9 °C 5.1 °C 1021.2 hPa Calm     67 % 0 mm
22:57 10.8 °C 5.2 °C 1021.2 hPa NNW 0.3 km/h 1.9 km/h 68 % 0 mm
23:02 10.8 °C 5.1 °C 1021.2 hPa NNW 0.2 km/h 1.6 km/h 68 % 0 mm
23:07 10.7 °C 5 °C 1021.2 hPa Calm   3.7 km/h 68 % 0 mm
23:12 10.6 °C 4.9 °C 1021.6 hPa NNW 1.3 km/h 3.2 km/h 68 % 0 mm
23:17 10.5 °C 4.8 °C 1021.2 hPa Calm     68 % 0 mm
23:22 10.4 °C 4.8 °C 1021.2 hPa Calm     68 % 0 mm
23:27 10.3 °C 4.7 °C 1020.9 hPa NNW 1 km/h 1.9 km/h 68 % 0 mm
23:32 10.2 °C 4.6 °C 1021.2 hPa Calm   1.9 km/h 68 % 0 mm
23:37 10.2 °C 4.5 °C 1021.2 hPa Calm   1.9 km/h 68 % 0 mm
23:43 10.1 °C 4.4 °C 1021.2 hPa Calm     68 % 0 mm
23:48 10 °C 4.3 °C 1021.2 hPa Calm     68 % 0 mm
23:53 9.9 °C 4.5 °C 1021.2 hPa Calm   1.9 km/h 69 % 0 mm
23:58 9.9 °C 4.3 °C 1021.2 hPa Calm   1.9 km/h 68 % 0 mm
Crab Meadow Weather
Compliments of Weather Underground - 3.25 mb

Script developed by  Jim McMurry - jmcmurry@mwt.net Adapted for the template by  Wim van der Kuil - Leuven-Template.eu

Clouds: Mostly sunny and mostly clear indicate the same amount of cloud coverage - about 25 percent. Mostly sunny is used during the daytime, and mostly clear is used at night when there is no sun.